FW9580 Weather Reports


time (UTC)temp
F
wind
direction
speed
knots
gust
knots
rain 1hr
in
rain 24hr
in
rain mn
in
humidity
%
barometer
mb
20260505183045 58 119 7.8 17.4 0.00 0.03 0.00 74 1006.5
20260505181541 57 140 13.0 20.9 0.00 0.03 0.00 74 1006.6
20260505180044 59 165 10.4 22.6 0.00 0.04 0.00 71 1006.8
20260505174536 60 140 9.6 17.4 0.00 0.04 0.00 72 1007.0
20260505173034 58 159 12.2 20.0 0.00 0.04 0.00 73 1007.1
20260505171534 57 128 12.2 21.7 0.00 0.04 0.00 75 1007.4
20260505170036 57 142 13.0 22.6 0.00 0.04 0.00 76 1007.6
20260505164535 55 154 13.0 20.9 0.00 0.04 0.00 79 1007.6
20260505163029 52 137 14.8 23.5 0.00 0.04 0.00 83 1008.3
20260505161529 55 155 13.0 19.1 0.00 0.04 0.00 76 1008.5
20260505153026 55 134 12.2 22.6 0.00 0.04 0.00 78 1008.1
20260505151533 54 138 17.4 26.9 0.00 0.04 0.00 79 1008.6
20260505124514 52 149 12.2 17.4 0.00 0.04 0.00 79 1008.6
20260505123009 52 146 11.3 18.2 0.00 0.04 0.00 80 1008.7
20260505121508 51 150 9.6 17.4 0.00 0.04 0.00 80 1008.9
20260505120010 50 156 10.4 17.4 0.00 0.04 0.00 82 1008.9
20260505114504 50 132 9.6 16.5 0.00 0.04 0.00 81 1008.9
20260505113002 49 136 9.6 15.6 0.00 0.04 0.00 82 1008.7
20260505111603 49 150 9.6 13.9 0.00 0.04 0.00 83 1008.6
20260505101555 47 142 10.4 16.5 0.00 0.04 0.00 86 1008.6
20260505100050 46 118 8.7 13.9 0.00 0.04 0.00 86 1008.4
20260505094558 46 140 9.6 13.9 0.00 0.04 0.00 86 1008.4
20260505093053 46 148 8.7 13.9 0.00 0.04 0.00 86 1008.2
20260505091547 46 139 9.6 14.8 0.00 0.04 0.00 85 1008.2
20260505090053 46 157 9.6 15.6 0.00 0.04 0.00 85 1008.2
20260505084545 46 130 8.7 13.0 0.00 0.04 0.00 86 1008.2
20260505083100 46 129 7.8 13.0 0.00 0.04 0.00 86 1008.2
20260505081541 46 136 7.8 11.3 0.00 0.04 0.00 86 1008.2
20260505080042 46 125 7.8 11.3 0.00 0.04 0.00 85 1008.1
20260505074537 46 148 7.0 13.0 0.00 0.04 0.00 85 1008.2
20260505073037 46 150 7.8 12.2 0.00 0.04 0.00 84 1008.1
20260505071535 46 149 7.0 12.2 0.00 0.04 0.00 84 1008.1
20260505070041 46 117 9.6 13.9 0.00 0.04 0.00 84 1008.2
20260505064533 47 130 7.8 12.2 0.00 0.04 0.00 83 1008.1
20260505063030 47 124 7.0 11.3 0.00 0.04 0.00 83 1008.0
20260505061538 47 134 7.8 12.2 0.00 0.04 0.00 83 1008.0
20260505060027 47 136 7.0 11.3 0.00 0.04 0.00 84 1008.0
20260505054540 47 129 5.2 11.3 0.00 0.04 0.00 84 1007.9
20260505053026 47 138 7.0 10.4 0.00 0.04 0.00 83 1007.9
20260505051523 47 121 7.8 13.0 0.00 0.04 0.00 83 1007.7
20260505041517 47 126 7.8 11.3 0.00 0.04 0.04 83 1007.6
20260505040034 47 138 6.1 11.3 0.00 0.04 0.04 83 1007.6
20260505034617 47 141 6.1 10.4 0.00 0.04 0.04 83 1007.6
20260505033016 47 153 5.2 10.4 0.00 0.04 0.04 83 1007.5
20260505031514 47 152 7.0 11.3 0.00 0.04 0.04 82 1007.5
20260505030016 47 150 7.0 11.3 0.00 0.04 0.04 81 1007.4
20260505024512 48 147 7.8 11.3 0.00 0.04 0.04 80 1007.6
20260505023013 47 143 5.2 8.7 0.00 0.04 0.04 81 1007.6
20260505021511 46 120 6.1 8.7 0.00 0.04 0.04 82 1007.4
20260505020013 46 129 7.8 10.4 0.00 0.04 0.04 82 1007.4
20260505014510 46 118 5.2 8.7 0.00 0.04 0.04 81 1007.4
20260505013009 47 129 7.0 11.3 0.00 0.04 0.04 81 1007.3
20260505011509 46 126 7.0 11.3 0.00 0.04 0.04 81 1007.2
20260505010009 46 123 7.0 11.3 0.00 0.04 0.04 81 1007.1
20260505004514 46 124 6.1 9.6 0.00 0.04 0.04 82 1006.9
20260505003007 46 123 5.2 7.8 0.00 0.04 0.04 81 1006.7
20260505001507 47 134 4.3 7.8 0.00 0.04 0.04 79 1006.6
20260505000007 49 136 5.2 8.7 0.00 0.04 0.04 76 1006.5
20260504234507 50 130 7.0 10.4 0.00 0.04 0.04 75 1006.2
20260504233005 50 128 5.2 8.7 0.00 0.04 0.04 75 1005.9
20260504231505 51 120 4.3 7.0 0.00 0.04 0.04 74 1005.8
20260504230005 51 128 4.3 7.8 0.00 0.04 0.04 74 1005.7
20260504224503 52 122 2.6 6.1 0.00 0.04 0.04 73 1005.4
20260504223004 54 129 4.3 6.1 0.00 0.04 0.04 70 1005.3
20260504221502 54 120 0.9 6.1 0.00 0.04 0.04 68 1005.4
20260504220004 55 134 2.6 6.1 0.00 0.04 0.04 66 1005.5
20260504214501 56 135 3.5 7.0 0.00 0.04 0.04 63 1005.2
20260504213002 57 144 5.2 8.7 0.00 0.04 0.04 64 1005.2
20260504211501 57 140 4.3 7.8 0.00 0.04 0.04 62 1005.2
20260504210106 57 131 6.1 10.4 0.00 0.04 0.04 61 1005.1
20260504204605 58 171 5.2 11.3 0.00 0.04 0.04 62 1005.0
20260504203101 58 113 5.2 11.3 0.00 0.04 0.04 66 1005.0
20260504201559 58 130 6.1 11.3 0.00 0.04 0.04 68 1004.8
20260504200058 57 120 7.0 11.3 0.00 0.05 0.04 70 1004.8
20260504194600 58 170 3.5 7.0 0.00 0.05 0.04 72 1004.9
20260504193109 57 167 4.3 7.0 0.00 0.05 0.04 79 1004.9
20260504191554 55 178 2.6 7.0 0.01 0.05 0.04 79 1005.1
20260504184551 51 182 2.6 4.3 0.04 0.08 0.04 88 1005.6